This demonstration page uses our WeatherBlox Daily Observations layout. Learn more.

Left ArrowRight Arrow

47.50024, -111.30081

Hourly Observations for May 2, 2019

Temp ( °F °C ) Dew Point ( °F °C ) Humidity (%) Winds ( mph kmh ) Pressure ( in mb ) Visibility ( mi km ) Precip ( " mm )
12:53 am 00:53 Partly Cloudy 37 2.8 25 -3.9 62 62 SW 9 15 29.92 1013 10 16 0.00 0.00
1:53 am 01:53 Clear 40 4.4 23 -5 51 51 SW 15 24 29.89 1012 10 16 0.00 0.00
2:53 am 02:53 Clear 40 4.4 24 -4.4 53 53 SW 15 24 29.88 1012 10 16 0.00 0.00
3:53 am 03:53 Clear 40 4.4 25 -3.9 55 55 SW 17 28 29.88 1012 10 16 0.00 0.00
4:53 am 04:53 Clear 40 4.4 25 -3.9 55 55 SW 17 28 29.86 1011 10 16 0.00 0.00
5:53 am 05:53 Clear 40 4.4 25 -3.9 55 55 SW 14 22 29.86 1011 10 16 0.00 0.00
6:53 am 06:53 Partly Cloudy 41 5 25 -3.9 53 53 SW 10 17 29.86 1011 10 16 0.00 0.00
7:53 am 07:53 Cloudy 43 6.1 24 -4.4 47 47 SW 13 20 29.86 1011 10 16 0.00 0.00
8:53 am 08:53 Cloudy 45 7.2 25 -3.9 46 46 SW 15 24 29.85 1011 10 16 0.00 0.00
9:53 am 09:53 Cloudy 47 8.3 22 -5.6 37 37 WSW 24 39 29.85 1011 10 16 0.00 0.00
10:53 am 10:53 Cloudy 48 8.9 24 -4.4 39 39 WSW 23 37 29.87 1011 10 16 0.00 0.00
11:53 am 11:53 Mostly Cloudy 49 9.4 22 -5.6 35 35 SW 21 33 29.89 1012 10 16 0.00 0.00
12:53 pm 12:53 Cloudy 49 9.4 25 -3.9 39 39 WSW 16 26 29.89 1012 10 16 0.00 0.00
1:53 pm 13:53 Mostly Cloudy 51 10.6 24 -4.4 35 35 SW 16 26 29.86 1011 10 16 0.00 0.00
2:53 pm 14:53 Cloudy 48 8.9 24 -4.4 39 39 NNW 17 28 29.89 1012 10 16 0.00 0.00
3:00 pm 15:00 Cloudy 47 8.3 26 -3.3 44 44 NNW 18 30 29.84 1011 10 16 0.00 0.00
3:53 pm 15:53 Mostly Cloudy 52 11.1 27 -2.8 38 38 N 22 35 29.90 1012 10 16 0.00 0.00
4:08 pm 16:08 Mostly Cloudy 50 10 28 -2.2 43 43 N 16 26 29.85 1011 10 16 0.00 0.00
4:53 pm 16:53 Cloudy 51 10.6 30 -1.1 44 44 SW 6 9 29.91 1013 10 16 0.00 0.00
5:53 pm 17:53 Cloudy with Light Rain 46 7.8 32 0 58 58 NNW 23 37 29.94 1014 10 16 0.00 0.03
6:53 pm 18:53 Cloudy 46 7.8 36 2.2 68 68 ESE 9 15 29.95 1014 10 16 0.00 0.03
7:53 pm 19:53 Cloudy 42 5.6 35 1.7 76 76 SE 10 17 29.97 1015 10 16 0.00 0.00
8:53 pm 20:53 Cloudy 42 5.6 35 1.7 76 76 ESE 7 11 29.97 1015 10 16 0.00 0.03
9:53 pm 21:53 Mostly Cloudy 39 3.9 31 -0.6 73 73 VRB 6 9 29.99 1016 10 16 0.00 0.00
10:53 pm 22:53 Clear 32 0 28 -2.2 85 85 SSW 10 17 30.01 1016 10 16 0.00 0.00
11:53 pm 23:53 Clear 32 0 27 -2.8 82 82 SW 10 17 30.00 1016 10 16 0.00 0.00

Powered by AerisWeather